This is the latest recevied weather packets stored in our database for station/object K8BCO. If no packets are shown the sender has not sent any weather packets the latest 10 day(s).
| Time | Temp. | Humidity | Pressure | Rain* | Wind** | Luminosity | Snow |
|---|---|---|---|---|---|---|---|
| 1777566316 | 4.44° C | 64% | 1016 hPa | 0 mm | - | 546 W/m² | - |
| 1777565717 | 4.44° C | 62% | 1016 hPa | 0 mm | - | 559 W/m² | - |
| 1777565117 | 3.89° C | 68% | 1015.9 hPa | 0 mm | - | 602 W/m² | - |
| 1777564517 | 3.89° C | 68% | 1015.9 hPa | 0 mm | - | 541 W/m² | - |
| 1777563917 | 3.89° C | 71% | 1015.9 hPa | 0 mm | - | 452 W/m² | - |
| 1777563317 | 3.33° C | 71% | 1016 hPa | 0 mm | - | 447 W/m² | - |
| 1777562718 | 3.33° C | 73% | 1015.9 hPa | 0 mm | - | 493 W/m² | - |
| 1777562118 | 3.33° C | 76% | 1016 hPa | 0 mm | - | 458 W/m² | - |
| 1777561518 | 3.33° C | 76% | 1016.1 hPa | 0 mm | - | 367 W/m² | - |
| 1777560918 | 2.78° C | 78% | 1016.1 hPa | 0 mm | - | 374 W/m² | - |
| 1777560318 | 2.78° C | 79% | 1016.1 hPa | 0 mm | - | 375 W/m² | - |
| 1777559718 | 2.22° C | 81% | 1016.2 hPa | 0 mm | - | 314 W/m² | - |
| 1777559123 | 2.22° C | 82% | 1016.3 hPa | 0 mm | - | 219 W/m² | - |
| 1777558519 | 2.22° C | 83% | 1016.3 hPa | 0 mm | - | 232 W/m² | - |
| 1777557923 | 2.22° C | 85% | 1016.3 hPa | 0 mm | - | 191 W/m² | - |
| 1777557323 | 2.22° C | 85% | 1016.3 hPa | 0 mm | - | 209 W/m² | - |
| 1777556723 | 1.67° C | 87% | 1016.3 hPa | 0 mm | - | 188 W/m² | - |
| 1777556124 | 1.67° C | 87% | 1016.4 hPa | 0 mm | - | 184 W/m² | - |
| 1777555524 | 1.67° C | 89% | 1016.4 hPa | 0 mm | - | 181 W/m² | - |
| 1777554924 | 1.67° C | 92% | 1016.4 hPa | 0 mm | - | 172 W/m² | - |
| 1777554324 | 1.67° C | 92% | 1016.4 hPa | 0 mm | - | 142 W/m² | - |
| 1777553724 | 1.67° C | 94% | 1016.4 hPa | 0 mm | - | 113 W/m² | - |
| 1777553127 | 1.67° C | 94% | 1016.4 hPa | 0 mm | - | 128 W/m² | - |
| 1777552525 | 1.11° C | 94% | 1016.3 hPa | 0 mm | - | 121 W/m² | - |
| 1777551925 | 1.11° C | 94% | 1016.3 hPa | 0 mm | - | 98 W/m² | - |
* Rain latest hour (hover to see other rain measurements)
** Current wind speed in m/s (hover to see current wind gust speed)